Weather in Gwangmyeong

South Korea     37°27′00″N   126°50′50″E
temp.,
°C
wind,
m/s
gust,
m/s
humid.,
%
clouds,
%
prec.,
mm/h
press.,
hPa
HPBL,
m
28 february, sun
sun2800:00+6se375249 0.0 1030298
03:00+5e245754 0.0 1029134
06:00+4e246444 0.0 1028112
09:00+5e236022 0.0 1028216
12:00+9ssw11410 0.0 1027467
15:00+11w223622 0.0 1025481
18:00+9sw1142100 0.0 1025170
21:00+8w124399 0.0 1025140
1 march, mon
mon100:00+8nne1144100 0.0 102462
03:00+7n3559100 0.7 1023211
06:00+6nne4684100 4.4 1021330
09:00+5nne4792100 13.7 1019310
12:00+6ne4990100 12.8 1017305
15:00+5nne5990100 25.3 1015486
18:00+3nne51188100 9.1 1016603
21:00+1ne5993100 13.1 1018510
2 march, tue
tue200:00+1ne41088100 0.7 1018691
03:000nne587497 0.8 1020555
06:000n357037 0.0 1021359
09:000n346519 0.0 1025326
12:00+3n344716 0.0 1026815
15:00+4nnw45489 0.0 1026910
18:00+4n35550 0.0 1027788
21:00+3n01600 0.0 1029394
3 march, wed
wed300:00+2w22690 0.0 1029133
03:00+1se00730 0.0 103031
06:00+1se117229 0.0 103042
09:00+2se356524 0.0 1030397
12:00+6sse344263 0.0 1029770
15:00+8sw473532 0.0 1027931
18:00+6sw47410 0.0 1026650
21:00+5sw26700 0.0 1027474
4 march, thu
thu400:00+4s24833 0.0 1028184
03:00+4sse258435 0.0 1026243
06:00+5se248098 0.0 1026160
09:00+6se357199 0.0 1026191
12:00+9s3556100 0.0 1024942
15:00+10sw345498 0.0 10231052
18:00+10sw125516 0.0 1023680
21:00+8ne12618 0.0 102324